STARLINK-5918 (55939 NORAD) Tracking and Keplerian Element Data

This shows tracking and keplerian element data for the satellite.

Feedback or suggestion? Click here.




ElementValue
Catalog55939
NameSTARLINK-5918
Epoch Orbit794
Epoch Day126.16718063
Epoch Year2023
RAAN42.1833
Inclination70.0012
Eccentricity0.0003597
Argument of Perigee260.2208
Mean Anonmoly99.8582
Mean Motion15.69927154
Decay Rate2.976E-05
L11 55939U 23037AB 23126.16718063 .00002976 00000+0 26509-4 0 9991
L22 55939 70.0012 42.1833 0003597 260.2208 99.8582 15.69927154 7948



Live tracking and technical data element details for STARLINK-5918 (NORAD 55939). STARLINK-5918 can be tracked NOW for your location showing map with azimuth and elevation plus other details from your city location.







IsCatalogInMostPopularTable: catalog: 55939, numindb: 9
Update: records affected: 1



GetName: 55939 STARLINK-5918

Hit Count: updated at: Tue, 06 Jun 2023 03:34:53 GMT